Voltar ao catálogo

STARLINK-3148

AtivoComunicaçõesVLEO
NORAD 49736·PAYLOAD·🇺🇸 United States

Lançado Dec 2, 2021 de Cape Canaveral Space Force Station

Loading…

Próximas Passagens (próximas 24 horas)

TLE

AtualizadoSource: CelesTrak SupGP

Época: Sep 15, 2026, 01:00 UTC

1 49736C 21115N   26258.04215278 -.00006719  00000+0 -19859-3 0  2588
2 49736  53.1601   6.9733 0001160  84.3415 338.0106 15.34382809    13

Acompanhe STARLINK-3148 em tempo real com AllMySat

Download on the App Store